| time (UTC) | temp F | wind direction | speed MPH | gust MPH | rain 1hr in | rain 24hr in | rain mn in | humidity % | barometer mb |
| 20260901080957 | 79 | 191 | 3.0 | 3.0 | 0.00 | 0.00 | 0.00 | 80 | 1017.2 |
| 20260901080455 | 79 | 246 | 4.0 | 6.0 | 0.00 | 0.00 | 0.00 | 80 | 1017.3 |
| 20260901075950 | 79 | 200 | 3.0 | 5.0 | 0.00 | 0.00 | 0.00 | 80 | 1017.2 |
| 20260901075446 | 79 | 222 | 4.0 | 5.0 | 0.00 | 0.00 | 0.00 | 79 | 1017.1 |
| 20260901074945 | 80 | 190 | 7.0 | 7.0 | 0.00 | 0.00 | 0.00 | 79 | 1017.2 |
| 20260901074439 | 80 | 232 | 3.0 | 3.0 | 0.00 | 0.00 | 0.00 | 79 | 1017.2 |
| 20260901073935 | 80 | 238 | 5.0 | 6.0 | 0.00 | 0.00 | 0.00 | 79 | 1017.4 |
| 20260901073431 | 80 | 231 | 3.0 | 5.0 | 0.00 | 0.00 | 0.00 | 79 | 1017.3 |
| 20260901072926 | 80 | 220 | 4.0 | 5.0 | 0.00 | 0.00 | 0.00 | 78 | 1017.1 |
| 20260901072421 | 80 | 215 | 4.0 | 6.0 | 0.00 | 0.00 | 0.00 | 78 | 1017.2 |
| 20260901071916 | 80 | 218 | 5.0 | 6.0 | 0.00 | 0.00 | 0.00 | 77 | 1017.3 |
| 20260901071415 | 80 | 206 | 7.0 | 9.0 | 0.00 | 0.00 | 0.00 | 77 | 1017.3 |
| 20260901070914 | 80 | 236 | 5.0 | 6.0 | 0.00 | 0.00 | 0.00 | 77 | 1017.2 |
| 20260901070410 | 80 | 212 | 4.0 | 5.0 | 0.00 | 0.00 | 0.00 | 76 | 1017.1 |
| 20260901065908 | 81 | 226 | 3.0 | 5.0 | 0.00 | 0.00 | 0.00 | 76 | 1017.3 |
| 20260901065404 | 81 | 220 | 4.0 | 5.0 | 0.00 | 0.00 | 0.00 | 76 | 1017.4 |
| 20260901064859 | 81 | 215 | 6.0 | 8.0 | 0.00 | 0.00 | 0.00 | 75 | 1017.2 |
| 20260901064355 | 81 | 238 | 5.0 | 6.0 | 0.00 | 0.00 | 0.00 | 75 | 1017.1 |
| 20260901063852 | 81 | 217 | 5.0 | 6.0 | 0.00 | 0.00 | 0.00 | 75 | 1017.0 |
| 20260901063348 | 81 | 221 | 4.0 | 5.0 | 0.00 | 0.00 | 0.00 | 74 | 1017.0 |
| 20260901062839 | 82 | 181 | 6.0 | 7.0 | 0.00 | 0.00 | 0.00 | 74 | 1017.1 |
| 20260901062334 | 82 | 178 | 4.0 | 5.0 | 0.00 | 0.00 | 0.00 | 74 | 1017.0 |
| 20260901061829 | 82 | 189 | 6.0 | 7.0 | 0.00 | 0.00 | 0.00 | 73 | 1016.8 |
| 20260901061324 | 82 | 206 | 7.0 | 8.0 | 0.00 | 0.00 | 0.00 | 73 | 1017.0 |
| 20260901060819 | 82 | 195 | 5.0 | 6.0 | 0.00 | 0.00 | 0.00 | 72 | 1017.0 |
| 20260901060315 | 82 | 199 | 5.0 | 7.0 | 0.00 | 0.00 | 0.00 | 72 | 1017.0 |
| 20260901055804 | 82 | 190 | 5.0 | 8.0 | 0.00 | 0.00 | 0.00 | 72 | 1016.9 |
| 20260901055301 | 83 | 188 | 6.0 | 7.0 | 0.00 | 0.00 | 0.00 | 71 | 1017.1 |
| 20260901054758 | 83 | 210 | 7.0 | 8.0 | 0.00 | 0.00 | 0.00 | 71 | 1016.8 |
| 20260901054254 | 83 | 193 | 6.0 | 7.0 | 0.00 | 0.00 | 0.00 | 71 | 1016.8 |
| 20260901053749 | 83 | 194 | 6.0 | 8.0 | 0.00 | 0.00 | 0.00 | 71 | 1016.9 |
| 20260901053244 | 83 | 169 | 6.0 | 8.0 | 0.00 | 0.00 | 0.00 | 70 | 1016.8 |
| 20260901052739 | 83 | 196 | 5.0 | 6.0 | 0.00 | 0.00 | 0.00 | 70 | 1016.5 |
| 20260901052235 | 84 | 179 | 7.0 | 8.0 | 0.00 | 0.00 | 0.00 | 69 | 1016.7 |
| 20260901051734 | 84 | 221 | 7.0 | 9.0 | 0.00 | 0.00 | 0.00 | 69 | 1016.6 |
| 20260901051228 | 84 | 179 | 4.0 | 6.0 | 0.00 | 0.00 | 0.00 | 68 | 1016.6 |
| 20260901050724 | 84 | 200 | 6.0 | 7.0 | 0.00 | 0.00 | 0.00 | 68 | 1016.6 |
| 20260901050219 | 84 | 215 | 6.0 | 8.0 | 0.00 | 0.00 | 0.00 | 67 | 1016.5 |
| 20260901045714 | 84 | 196 | 4.0 | 5.0 | 0.00 | 0.00 | 0.00 | 66 | 1016.8 |
| 20260901045209 | 84 | 204 | 5.0 | 5.0 | 0.00 | 0.00 | 0.00 | 66 | 1016.7 |
| 20260901044704 | 85 | 181 | 7.0 | 9.0 | 0.00 | 0.00 | 0.00 | 65 | 1016.5 |
| 20260901044201 | 85 | 294 | 3.0 | 5.0 | 0.00 | 0.00 | 0.00 | 65 | 1016.7 |
| 20260901043656 | 85 | 194 | 7.0 | 7.0 | 0.00 | 0.00 | 0.00 | 64 | 1016.7 |
| 20260901043151 | 85 | 199 | 6.0 | 7.0 | 0.00 | 0.00 | 0.00 | 63 | 1016.6 |
| 20260901042650 | 85 | 181 | 7.0 | 8.0 | 0.00 | 0.00 | 0.00 | 63 | 1016.4 |
| 20260901042145 | 86 | 187 | 7.0 | 9.0 | 0.00 | 0.00 | 0.00 | 62 | 1016.4 |
| 20260901041642 | 86 | 166 | 9.0 | 10.0 | 0.00 | 0.00 | 0.00 | 61 | 1016.5 |
| 20260901041136 | 86 | 197 | 7.0 | 11.0 | 0.00 | 0.00 | 0.00 | 60 | 1016.4 |
| 20260901040636 | 86 | 231 | 5.0 | 7.0 | 0.00 | 0.00 | 0.00 | 59 | 1016.4 |
| 20260901040130 | 86 | 178 | 8.0 | 11.0 | 0.00 | 0.00 | 0.00 | 58 | 1016.4 |
| 20260901035628 | 86 | 198 | 5.0 | 8.0 | 0.00 | 0.00 | 0.00 | 58 | 1016.4 |
| 20260901035127 | 86 | 203 | 5.0 | 6.0 | 0.00 | 0.00 | 0.00 | 58 | 1016.5 |
| 20260901034626 | 87 | 240 | 9.0 | 11.0 | 0.00 | 0.00 | 0.00 | 57 | 1016.4 |
| 20260901034121 | 87 | 178 | 9.0 | 10.0 | 0.00 | 0.00 | 0.00 | 57 | 1016.3 |
| 20260901033620 | 87 | 159 | 6.0 | 8.0 | 0.00 | 0.00 | 0.00 | 56 | 1016.1 |
| 20260901033114 | 87 | 202 | 7.0 | 10.0 | 0.00 | 0.00 | 0.00 | 55 | 1015.9 |
| 20260901032613 | 88 | 183 | 6.0 | 8.0 | 0.00 | 0.00 | 0.00 | 54 | 1016.2 |
| 20260901032109 | 88 | 225 | 9.0 | 11.0 | 0.00 | 0.00 | 0.00 | 53 | 1015.9 |
| 20260901031604 | 88 | 126 | 6.0 | 8.0 | 0.00 | 0.00 | 0.00 | 51 | 1015.8 |
| 20260901031100 | 88 | 115 | 10.0 | 10.0 | 0.00 | 0.00 | 0.00 | 50 | 1015.9 |
| 20260901030559 | 89 | 159 | 8.0 | 11.0 | 0.00 | 0.00 | 0.00 | 48 | 1015.9 |
| 20260901030054 | 89 | 149 | 5.0 | 8.0 | 0.00 | 0.00 | 0.00 | 47 | 1015.7 |
| 20260901025548 | 89 | 120 | 5.0 | 7.0 | 0.00 | 0.00 | 0.00 | 47 | 1015.6 |
| 20260901025043 | 89 | 91 | 4.0 | 5.0 | 0.00 | 0.00 | 0.00 | 46 | 1015.8 |
| 20260901024538 | 89 | 146 | 4.0 | 6.0 | 0.00 | 0.00 | 0.00 | 46 | 1015.5 |
| 20260901024037 | 89 | 125 | 5.0 | 6.0 | 0.00 | 0.00 | 0.00 | 45 | 1015.4 |
| 20260901023536 | 89 | 138 | 4.0 | 6.0 | 0.00 | 0.00 | 0.00 | 45 | 1015.6 |
| 20260901023031 | 90 | 85 | 3.0 | 3.0 | 0.00 | 0.00 | 0.00 | 45 | 1015.4 |
| 20260901022526 | 90 | 136 | 3.0 | 5.0 | 0.00 | 0.00 | 0.00 | 45 | 1015.3 |
| 20260901022021 | 90 | 104 | 6.0 | 7.0 | 0.00 | 0.00 | 0.00 | 45 | 1015.6 |
| 20260901021517 | 90 | 118 | 5.0 | 7.0 | 0.00 | 0.00 | 0.00 | 45 | 1015.4 |
| 20260901021012 | 90 | 114 | 5.0 | 6.0 | 0.00 | 0.00 | 0.00 | 45 | 1015.0 |
| 20260901020507 | 90 | 172 | 5.0 | 6.0 | 0.00 | 0.00 | 0.00 | 44 | 1014.8 |
| 20260901020008 | 90 | 83 | 3.0 | 5.0 | 0.00 | 0.00 | 0.00 | 44 | 1015.1 |
| 20260901015503 | 90 | 117 | 5.0 | 7.0 | 0.00 | 0.00 | 0.00 | 44 | 1014.8 |
| 20260901015002 | 91 | 106 | 3.0 | 5.0 | 0.00 | 0.00 | 0.00 | 44 | 1015.0 |
| 20260901014458 | 91 | 111 | 3.0 | 3.0 | 0.00 | 0.00 | 0.00 | 44 | 1014.9 |
| 20260901013954 | 91 | 91 | 4.0 | 5.0 | 0.00 | 0.00 | 0.00 | 43 | 1014.7 |
| 20260901013450 | 91 | 189 | 3.0 | 5.0 | 0.00 | 0.00 | 0.00 | 43 | 1014.8 |
| 20260901012945 | 91 | 113 | 6.0 | 7.0 | 0.00 | 0.00 | 0.00 | 43 | 1014.6 |
| 20260901012445 | 91 | 131 | 4.0 | 5.0 | 0.00 | 0.00 | 0.00 | 43 | 1014.7 |
| 20260901011940 | 91 | 127 | 6.0 | 8.0 | 0.00 | 0.00 | 0.00 | 43 | 1015.0 |
| 20260901011436 | 92 | 86 | 3.0 | 5.0 | 0.00 | 0.00 | 0.00 | 42 | 1014.7 |
| 20260901010934 | 92 | 108 | 3.0 | 5.0 | 0.00 | 0.00 | 0.00 | 43 | 1014.6 |
| 20260901010429 | 92 | 115 | 4.0 | 5.0 | 0.00 | 0.00 | 0.00 | 42 | 1014.6 |
| 20260901005928 | 92 | 122 | 3.0 | 5.0 | 0.00 | 0.00 | 0.00 | 42 | 1014.3 |
| 20260901005424 | 92 | 182 | 3.0 | 5.0 | 0.00 | 0.00 | 0.00 | 42 | 1014.5 |
| 20260901004919 | 92 | 232 | 3.0 | 5.0 | 0.00 | 0.00 | 0.00 | 41 | 1014.5 |
| 20260901004418 | 93 | 190 | 4.0 | 6.0 | 0.00 | 0.00 | 0.00 | 40 | 1014.3 |
| 20260901003913 | 93 | 186 | 3.0 | 3.0 | 0.00 | 0.00 | 0.00 | 40 | 1014.5 |
| 20260901003408 | 93 | 151 | 3.0 | 5.0 | 0.00 | 0.00 | 0.00 | 40 | 1014.5 |
| 20260901002907 | 93 | 158 | 6.0 | 7.0 | 0.00 | 0.00 | 0.00 | 39 | 1014.6 |
| 20260901002406 | 94 | 139 | 6.0 | 7.0 | 0.00 | 0.00 | 0.00 | 39 | 1014.3 |
| 20260901001901 | 94 | 229 | 4.0 | 5.0 | 0.00 | 0.00 | 0.00 | 39 | 1014.5 |
| 20260901001357 | 94 | 194 | 8.0 | 11.0 | 0.00 | 0.00 | 0.00 | 39 | 1014.4 |
| 20260901000852 | 94 | 210 | 3.0 | 3.0 | 0.00 | 0.00 | 0.00 | 39 | 1014.3 |
| 20260901000347 | 95 | 176 | 7.0 | 9.0 | 0.00 | 0.00 | 0.00 | 39 | 1014.6 |
| 20260831235845 | 95 | 121 | 6.0 | 8.0 | 0.00 | 0.00 | 0.00 | 38 | 1014.4 |
| 20260831235342 | 95 | 148 | 4.0 | 6.0 | 0.00 | 0.00 | 0.00 | 38 | 1014.4 |
| 20260831234836 | 95 | 128 | 3.0 | 5.0 | 0.00 | 0.00 | 0.00 | 39 | 1014.4 |
| 20260831234331 | 95 | 155 | 4.0 | 5.0 | 0.00 | 0.00 | 0.00 | 40 | 1014.6 |
| 20260831233826 | 95 | 157 | 6.0 | 7.0 | 0.00 | 0.00 | 0.00 | 40 | 1014.2 |
| 20260831233321 | 95 | 122 | 9.0 | 9.0 | 0.00 | 0.00 | 0.00 | 40 | 1014.4 |
| 20260831232817 | 95 | 97 | 6.0 | 7.0 | 0.00 | 0.00 | 0.00 | 39 | 1014.4 |
| 20260831232313 | 96 | 84 | 4.0 | 6.0 | 0.00 | 0.00 | 0.00 | 39 | 1014.4 |
| 20260831231809 | 95 | 199 | 7.0 | 10.0 | 0.00 | 0.00 | 0.00 | 40 | 1014.2 |
| 20260831231305 | 95 | 176 | 6.0 | 7.0 | 0.00 | 0.00 | 0.00 | 40 | 1014.3 |
| 20260831230800 | 95 | 292 | 3.0 | 5.0 | 0.00 | 0.00 | 0.00 | 40 | 1014.6 |
| 20260831230255 | 95 | 136 | 8.0 | 10.0 | 0.00 | 0.00 | 0.00 | 40 | 1014.6 |
| 20260831225754 | 96 | 324 | 2.0 | 2.0 | 0.00 | 0.00 | 0.00 | 39 | 1014.5 |
| 20260831225249 | 96 | 320 | 1.0 | 1.0 | 0.00 | 0.00 | 0.00 | 39 | 1014.3 |
| 20260831224739 | 96 | 59 | 1.0 | 1.0 | 0.00 | 0.00 | 0.00 | 39 | 1014.6 |
| 20260831224234 | 96 | 206 | 5.0 | 6.0 | 0.00 | 0.00 | 0.00 | 40 | 1014.5 |
| 20260831223729 | 96 | 143 | 5.0 | 6.0 | 0.00 | 0.00 | 0.00 | 40 | 1014.4 |
| 20260831223225 | 96 | 201 | 3.0 | 5.0 | 0.00 | 0.00 | 0.00 | 40 | 1014.5 |
| 20260831222721 | 96 | 43 | 4.0 | 6.0 | 0.00 | 0.00 | 0.00 | 41 | 1014.6 |
| 20260831222217 | 96 | 96 | 7.0 | 8.0 | 0.00 | 0.00 | 0.00 | 40 | 1014.6 |
| 20260831221712 | 95 | 63 | 5.0 | 7.0 | 0.00 | 0.00 | 0.00 | 42 | 1014.8 |
| 20260831221207 | 95 | 129 | 7.0 | 9.0 | 0.00 | 0.00 | 0.00 | 43 | 1014.8 |
| 20260831220702 | 95 | 52 | 3.0 | 3.0 | 0.00 | 0.00 | 0.00 | 42 | 1014.8 |
| 20260831220157 | 94 | 172 | 8.0 | 10.0 | 0.00 | 0.00 | 0.00 | 43 | 1014.6 |
| 20260831215652 | 95 | 115 | 5.0 | 7.0 | 0.00 | 0.00 | 0.00 | 42 | 1015.0 |
| 20260831215148 | 95 | 121 | 5.0 | 6.0 | 0.00 | 0.00 | 0.00 | 42 | 1015.0 |
| 20260831214645 | 97 | 206 | 4.0 | 5.0 | 0.00 | 0.00 | 0.00 | 41 | 1015.1 |
| 20260831214142 | 97 | 182 | 3.0 | 5.0 | 0.00 | 0.00 | 0.00 | 40 | 1015.1 |
| 20260831213637 | 95 | 106 | 5.0 | 6.0 | 0.00 | 0.00 | 0.00 | 42 | 1015.0 |
| 20260831213132 | 95 | 106 | 4.0 | 6.0 | 0.00 | 0.00 | 0.00 | 43 | 1015.1 |
| 20260831212629 | 96 | 83 | 4.0 | 5.0 | 0.00 | 0.00 | 0.00 | 41 | 1015.0 |
| 20260831212125 | 96 | 101 | 7.0 | 9.0 | 0.00 | 0.00 | 0.00 | 41 | 1015.3 |
| 20260831211623 | 97 | 239 | 3.0 | 3.0 | 0.00 | 0.00 | 0.00 | 40 | 1015.3 |
| 20260831211118 | 95 | 166 | 3.0 | 5.0 | 0.00 | 0.00 | 0.00 | 40 | 1015.4 |
| 20260831210613 | 95 | 128 | 5.0 | 6.0 | 0.00 | 0.00 | 0.00 | 41 | 1015.6 |
| 20260831210109 | 95 | 296 | 3.0 | 3.0 | 0.00 | 0.00 | 0.00 | 42 | 1015.5 |
| 20260831205608 | 95 | 210 | 4.0 | 5.0 | 0.00 | 0.00 | 0.00 | 41 | 1015.4 |
| 20260831205105 | 96 | 221 | 7.0 | 8.0 | 0.00 | 0.00 | 0.00 | 41 | 1015.6 |
| 20260831204559 | 95 | 193 | 7.0 | 8.0 | 0.00 | 0.00 | 0.00 | 40 | 1015.9 |
| 20260831204057 | 96 | 111 | 7.0 | 10.0 | 0.00 | 0.00 | 0.00 | 41 | 1016.1 |
| 20260831203552 | 97 | 199 | 3.0 | 5.0 | 0.00 | 0.00 | 0.00 | 42 | 1016.1 |
| 20260831203052 | 95 | 172 | 3.0 | 3.0 | 0.00 | 0.00 | 0.00 | 44 | 1016.2 |
| 20260831202550 | 96 | 135 | 8.0 | 9.0 | 0.00 | 0.00 | 0.00 | 42 | 1016.5 |
| 20260831202050 | 94 | 234 | 5.0 | 6.0 | 0.00 | 0.00 | 0.00 | 45 | 1016.3 |
| 20260831201549 | 95 | 119 | 6.0 | 7.0 | 0.00 | 0.00 | 0.00 | 44 | 1016.3 |
| 20260831201044 | 96 | 69 | 6.0 | 7.0 | 0.00 | 0.00 | 0.00 | 43 | 1016.5 |
| 20260831200540 | 94 | 84 | 5.0 | 7.0 | 0.00 | 0.00 | 0.00 | 45 | 1016.4 |
| 20260831200035 | 93 | 175 | 7.0 | 9.0 | 0.00 | 0.00 | 0.00 | 48 | 1016.8 |
| 20260831195531 | 94 | 124 | 5.0 | 7.0 | 0.00 | 0.00 | 0.00 | 47 | 1016.8 |
| 20260831195025 | 94 | 137 | 9.0 | 10.0 | 0.00 | 0.00 | 0.00 | 47 | 1017.0 |
| 20260831194521 | 93 | 187 | 7.0 | 7.0 | 0.00 | 0.00 | 0.00 | 47 | 1016.9 |
| 20260831194020 | 94 | 262 | 4.0 | 5.0 | 0.00 | 0.00 | 0.00 | 47 | 1016.7 |
| 20260831193515 | 93 | 233 | 4.0 | 5.0 | 0.00 | 0.00 | 0.00 | 46 | 1016.8 |
| 20260831193005 | 93 | 198 | 6.0 | 7.0 | 0.00 | 0.00 | 0.00 | 49 | 1017.0 |
| 20260831192500 | 93 | 125 | 10.0 | 13.0 | 0.00 | 0.00 | 0.00 | 47 | 1017.1 |
| 20260831191954 | 93 | 219 | 3.0 | 5.0 | 0.00 | 0.00 | 0.00 | 49 | 1017.3 |
| 20260831191451 | 94 | 219 | 10.0 | 13.0 | 0.00 | 0.00 | 0.00 | 49 | 1017.1 |
| 20260831190947 | 94 | 283 | 4.0 | 6.0 | 0.00 | 0.00 | 0.00 | 48 | 1017.4 |
| 20260831190442 | 93 | 218 | 6.0 | 7.0 | 0.00 | 0.00 | 0.00 | 49 | 1017.5 |
| 20260831185940 | 93 | 160 | 5.0 | 6.0 | 0.00 | 0.00 | 0.00 | 50 | 1017.5 |
| 20260831185437 | 93 | 193 | 8.0 | 11.0 | 0.00 | 0.00 | 0.00 | 49 | 1017.6 |
| 20260831184936 | 94 | 143 | 4.0 | 6.0 | 0.00 | 0.00 | 0.00 | 48 | 1017.6 |
| 20260831184431 | 94 | 211 | 3.0 | 5.0 | 0.00 | 0.00 | 0.00 | 48 | 1017.5 |
| 20260831183927 | 93 | 119 | 10.0 | 11.0 | 0.00 | 0.00 | 0.00 | 48 | 1017.4 |
| 20260831183426 | 92 | 75 | 5.0 | 7.0 | 0.00 | 0.00 | 0.00 | 50 | 1017.5 |
| 20260831182925 | 92 | 217 | 5.0 | 7.0 | 0.00 | 0.00 | 0.00 | 50 | 1017.5 |
| 20260831182421 | 91 | 199 | 3.0 | 5.0 | 0.00 | 0.00 | 0.00 | 52 | 1017.7 |
| 20260831181916 | 93 | 196 | 9.0 | 11.0 | 0.00 | 0.00 | 0.00 | 48 | 1017.8 |
| 20260831181411 | 92 | 229 | 7.0 | 7.0 | 0.00 | 0.00 | 0.00 | 48 | 1017.6 |
| 20260831180906 | 91 | 182 | 6.0 | 7.0 | 0.00 | 0.00 | 0.00 | 50 | 1017.7 |
| 20260831180400 | 92 | 105 | 5.0 | 6.0 | 0.00 | 0.00 | 0.00 | 53 | 1017.9 |
| 20260831175859 | 91 | 183 | 9.0 | 10.0 | 0.00 | 0.00 | 0.00 | 54 | 1018.0 |
| 20260831175356 | 91 | 177 | 4.0 | 6.0 | 0.00 | 0.00 | 0.00 | 55 | 1018.0 |
| 20260831174852 | 92 | 161 | 7.0 | 8.0 | 0.00 | 0.00 | 0.00 | 52 | 1018.1 |
| 20260831174347 | 91 | 257 | 4.0 | 7.0 | 0.00 | 0.00 | 0.00 | 55 | 1018.1 |
| 20260831173846 | 91 | 206 | 9.0 | 11.0 | 0.00 | 0.00 | 0.00 | 56 | 1018.4 |
| 20260831173340 | 91 | 271 | 2.0 | 2.0 | 0.00 | 0.00 | 0.00 | 58 | 1018.2 |
| 20260831172835 | 90 | 233 | 5.0 | 7.0 | 0.00 | 0.00 | 0.00 | 60 | 1018.2 |
| 20260831172331 | 90 | 188 | 5.0 | 6.0 | 0.00 | 0.00 | 0.00 | 58 | 1018.4 |
| 20260831171831 | 90 | 161 | 5.0 | 6.0 | 0.00 | 0.00 | 0.00 | 57 | 1018.5 |
| 20260831171327 | 88 | 119 | 6.0 | 8.0 | 0.00 | 0.00 | 0.00 | 60 | 1018.2 |
| 20260831170824 | 89 | 176 | 5.0 | 7.0 | 0.00 | 0.00 | 0.00 | 60 | 1018.7 |
| 20260831170320 | 88 | 120 | 7.0 | 8.0 | 0.00 | 0.00 | 0.00 | 62 | 1018.5 |
| 20260831165816 | 88 | 229 | 7.0 | 8.0 | 0.00 | 0.00 | 0.00 | 62 | 1018.4 |
| 20260831165312 | 87 | 287 | 4.0 | 5.0 | 0.00 | 0.00 | 0.00 | 64 | 1018.5 |
| 20260831164808 | 87 | 113 | 3.0 | 5.0 | 0.00 | 0.00 | 0.00 | 65 | 1018.6 |
| 20260831164304 | 88 | 267 | 4.0 | 6.0 | 0.00 | 0.00 | 0.00 | 64 | 1018.7 |
| 20260831163759 | 87 | 220 | 4.0 | 5.0 | 0.00 | 0.00 | 0.00 | 64 | 1018.5 |
| 20260831163255 | 86 | 236 | 3.0 | 6.0 | 0.00 | 0.00 | 0.00 | 66 | 1018.5 |
| 20260831162753 | 87 | 166 | 4.0 | 6.0 | 0.00 | 0.00 | 0.00 | 66 | 1018.7 |
| 20260831162248 | 86 | 220 | 3.0 | 5.0 | 0.00 | 0.00 | 0.00 | 68 | 1018.5 |
| 20260831161742 | 87 | 199 | 6.0 | 8.0 | 0.00 | 0.00 | 0.00 | 68 | 1018.5 |
| 20260831161239 | 86 | 178 | 5.0 | 7.0 | 0.00 | 0.00 | 0.00 | 68 | 1018.6 |
| 20260831160738 | 86 | 235 | 5.0 | 7.0 | 0.00 | 0.00 | 0.00 | 69 | 1018.5 |
| 20260831160233 | 85 | 146 | 7.0 | 9.0 | 0.00 | 0.00 | 0.00 | 69 | 1018.7 |
| 20260831155733 | 85 | 222 | 5.0 | 7.0 | 0.00 | 0.00 | 0.00 | 68 | 1018.5 |
| 20260831155228 | 86 | 173 | 9.0 | 10.0 | 0.00 | 0.00 | 0.00 | 68 | 1018.4 |
| 20260831154724 | 85 | 216 | 6.0 | 7.0 | 0.00 | 0.00 | 0.00 | 68 | 1018.5 |
| 20260831154220 | 84 | 186 | 6.0 | 7.0 | 0.00 | 0.00 | 0.00 | 73 | 1018.4 |
| 20260831153718 | 84 | 227 | 5.0 | 7.0 | 0.00 | 0.00 | 0.00 | 73 | 1018.4 |
| 20260831153209 | 84 | 190 | 6.0 | 9.0 | 0.00 | 0.00 | 0.00 | 73 | 1018.3 |
| 20260831152704 | 84 | 224 | 8.0 | 10.0 | 0.00 | 0.00 | 0.00 | 76 | 1018.6 |
| 20260831152200 | 84 | 205 | 6.0 | 8.0 | 0.00 | 0.00 | 0.00 | 76 | 1018.3 |
| 20260831151654 | 83 | 184 | 6.0 | 7.0 | 0.00 | 0.00 | 0.00 | 78 | 1018.3 |
| 20260831151148 | 82 | 237 | 3.0 | 3.0 | 0.00 | 0.00 | 0.00 | 80 | 1018.2 |
| 20260831150638 | 83 | 234 | 5.0 | 7.0 | 0.00 | 0.00 | 0.00 | 79 | 1018.1 |
| 20260831150134 | 82 | 279 | 5.0 | 7.0 | 0.00 | 0.00 | 0.00 | 80 | 1018.3 |
| 20260831145633 | 81 | 239 | 9.0 | 9.0 | 0.00 | 0.00 | 0.00 | 81 | 1018.1 |
| 20260831145129 | 81 | 207 | 7.0 | 9.0 | 0.00 | 0.00 | 0.00 | 82 | 1018.1 |
| 20260831144625 | 82 | 221 | 8.0 | 10.0 | 0.00 | 0.00 | 0.00 | 81 | 1018.0 |
| 20260831144120 | 81 | 231 | 7.0 | 8.0 | 0.00 | 0.00 | 0.00 | 82 | 1018.2 |
| 20260831143619 | 81 | 260 | 7.0 | 8.0 | 0.00 | 0.00 | 0.00 | 83 | 1018.1 |
| 20260831143115 | 80 | 223 | 6.0 | 7.0 | 0.00 | 0.00 | 0.00 | 83 | 1017.8 |
| 20260831142612 | 80 | 213 | 6.0 | 9.0 | 0.00 | 0.00 | 0.00 | 84 | 1018.0 |
| 20260831142107 | 80 | 208 | 6.0 | 8.0 | 0.00 | 0.00 | 0.00 | 85 | 1018.0 |
| 20260831141606 | 80 | 225 | 6.0 | 7.0 | 0.00 | 0.00 | 0.00 | 85 | 1018.0 |
| 20260831141101 | 80 | 215 | 5.0 | 6.0 | 0.00 | 0.00 | 0.00 | 85 | 1017.8 |
| 20260831140600 | 79 | 218 | 7.0 | 8.0 | 0.00 | 0.00 | 0.00 | 86 | 1018.0 |
| 20260831140055 | 79 | 220 | 7.0 | 8.0 | 0.00 | 0.00 | 0.00 | 86 | 1017.7 |
| 20260831135553 | 79 | 263 | 6.0 | 7.0 | 0.00 | 0.00 | 0.00 | 87 | 1017.6 |
| 20260831135049 | 79 | 231 | 8.0 | 9.0 | 0.00 | 0.00 | 0.00 | 87 | 1017.5 |
| 20260831134545 | 79 | 244 | 5.0 | 6.0 | 0.00 | 0.00 | 0.00 | 88 | 1017.6 |
| 20260831134044 | 79 | 214 | 5.0 | 6.0 | 0.00 | 0.00 | 0.00 | 89 | 1017.3 |
| 20260831133538 | 78 | 212 | 8.0 | 9.0 | 0.00 | 0.00 | 0.00 | 89 | 1017.5 |
| 20260831133033 | 78 | 250 | 5.0 | 6.0 | 0.00 | 0.00 | 0.00 | 90 | 1017.8 |
| 20260831132530 | 78 | 205 | 5.0 | 6.0 | 0.00 | 0.00 | 0.00 | 91 | 1017.5 |
| 20260831132028 | 78 | 246 | 5.0 | 7.0 | 0.00 | 0.00 | 0.00 | 91 | 1017.5 |
| 20260831131523 | 77 | 217 | 3.0 | 3.0 | 0.00 | 0.00 | 0.00 | 91 | 1017.4 |
| 20260831131020 | 77 | 214 | 5.0 | 6.0 | 0.00 | 0.00 | 0.00 | 92 | 1017.4 |
| 20260831130520 | 77 | 203 | 5.0 | 6.0 | 0.00 | 0.00 | 0.00 | 92 | 1017.3 |
| 20260831130016 | 77 | 221 | 5.0 | 7.0 | 0.00 | 0.00 | 0.00 | 93 | 1017.3 |
| 20260831125509 | 76 | 239 | 5.0 | 6.0 | 0.00 | 0.00 | 0.00 | 93 | 1017.2 |
| 20260831125005 | 76 | 205 | 5.0 | 6.0 | 0.00 | 0.00 | 0.00 | 93 | 1017.3 |
| 20260831124501 | 76 | 247 | 4.0 | 5.0 | 0.00 | 0.00 | 0.00 | 93 | 1017.2 |
| 20260831123956 | 76 | 239 | 4.0 | 5.0 | 0.00 | 0.00 | 0.00 | 93 | 1017.1 |
| 20260831123455 | 76 | 262 | 3.0 | 5.0 | 0.00 | 0.00 | 0.00 | 93 | 1017.2 |
| 20260831122949 | 75 | 240 | 4.0 | 5.0 | 0.00 | 0.00 | 0.00 | 93 | 1017.0 |
| 20260831122445 | 76 | 245 | 2.0 | 2.0 | 0.00 | 0.00 | 0.00 | 93 | 1017.1 |
| 20260831121940 | 76 | 267 | 2.0 | 2.0 | 0.00 | 0.00 | 0.00 | 93 | 1017.1 |
| 20260831121436 | 76 | 243 | 3.0 | 3.0 | 0.00 | 0.00 | 0.00 | 93 | 1017.0 |
| 20260831120931 | 76 | 260 | 4.0 | 5.0 | 0.00 | 0.00 | 0.00 | 93 | 1017.1 |
| 20260831120426 | 76 | 238 | 4.0 | 5.0 | 0.00 | 0.00 | 0.00 | 93 | 1017.1 |
| 20260831115926 | 76 | 222 | 4.0 | 5.0 | 0.00 | 0.00 | 0.00 | 93 | 1016.9 |
| 20260831115422 | 76 | 225 | 4.0 | 5.0 | 0.00 | 0.00 | 0.00 | 93 | 1017.0 |
| 20260831114922 | 76 | 217 | 4.0 | 5.0 | 0.00 | 0.00 | 0.00 | 92 | 1016.8 |
| 20260831114420 | 76 | 227 | 5.0 | 6.0 | 0.00 | 0.00 | 0.00 | 92 | 1017.0 |
| 20260831113916 | 76 | 241 | 4.0 | 5.0 | 0.00 | 0.00 | 0.00 | 92 | 1016.9 |
| 20260831113416 | 76 | 207 | 5.0 | 5.0 | 0.00 | 0.00 | 0.00 | 92 | 1016.8 |
| 20260831112911 | 76 | 190 | 5.0 | 6.0 | 0.00 | 0.00 | 0.00 | 92 | 1017.0 |
| 20260831112406 | 76 | 220 | 7.0 | 10.0 | 0.00 | 0.00 | 0.00 | 91 | 1016.9 |
| 20260831111901 | 77 | 206 | 7.0 | 9.0 | 0.00 | 0.00 | 0.00 | 91 | 1017.0 |
| 20260831111357 | 77 | 223 | 7.0 | 9.0 | 0.00 | 0.00 | 0.00 | 91 | 1016.8 |
| 20260831110853 | 77 | 198 | 5.0 | 8.0 | 0.00 | 0.00 | 0.00 | 91 | 1016.8 |
| 20260831110353 | 77 | 234 | 7.0 | 8.0 | 0.00 | 0.00 | 0.00 | 91 | 1016.8 |
| 20260831105851 | 77 | 220 | 7.0 | 9.0 | 0.00 | 0.00 | 0.00 | 91 | 1016.8 |
| 20260831105347 | 77 | 243 | 6.0 | 8.0 | 0.00 | 0.00 | 0.00 | 91 | 1016.8 |
| 20260831104842 | 77 | 208 | 10.0 | 11.0 | 0.00 | 0.00 | 0.00 | 91 | 1016.9 |
| 20260831104338 | 77 | 195 | 7.0 | 8.0 | 0.00 | 0.00 | 0.00 | 91 | 1016.8 |
| 20260831103838 | 77 | 264 | 5.0 | 6.0 | 0.00 | 0.00 | 0.00 | 90 | 1016.8 |
| 20260831103334 | 77 | 226 | 7.0 | 9.0 | 0.00 | 0.00 | 0.00 | 90 | 1016.5 |
| 20260831102829 | 77 | 218 | 7.0 | 8.0 | 0.00 | 0.00 | 0.00 | 90 | 1016.7 |
| 20260831102324 | 77 | 195 | 9.0 | 9.0 | 0.00 | 0.00 | 0.00 | 91 | 1017.0 |
| 20260831101820 | 77 | 234 | 7.0 | 9.0 | 0.00 | 0.00 | 0.00 | 91 | 1017.2 |
| 20260831101314 | 77 | 203 | 6.0 | 8.0 | 0.00 | 0.00 | 0.00 | 90 | 1016.8 |
| 20260831100810 | 77 | 157 | 5.0 | 7.0 | 0.00 | 0.00 | 0.00 | 90 | 1016.9 |
| 20260831100306 | 77 | 219 | 7.0 | 8.0 | 0.00 | 0.00 | 0.00 | 90 | 1017.0 |
| 20260831095805 | 77 | 210 | 7.0 | 8.0 | 0.00 | 0.00 | 0.00 | 90 | 1017.0 |
| 20260831095300 | 77 | 223 | 8.0 | 9.0 | 0.00 | 0.00 | 0.00 | 90 | 1017.0 |
| 20260831094755 | 77 | 227 | 8.0 | 9.0 | 0.00 | 0.00 | 0.00 | 90 | 1016.8 |
| 20260831094250 | 77 | 231 | 6.0 | 8.0 | 0.00 | 0.00 | 0.00 | 90 | 1017.0 |
| 20260831093746 | 77 | 216 | 7.0 | 9.0 | 0.00 | 0.00 | 0.00 | 89 | 1016.9 |
| 20260831093240 | 77 | 221 | 7.0 | 8.0 | 0.00 | 0.00 | 0.00 | 89 | 1016.8 |
| 20260831092737 | 77 | 224 | 4.0 | 6.0 | 0.00 | 0.00 | 0.00 | 89 | 1016.9 |
| 20260831092233 | 77 | 216 | 8.0 | 9.0 | 0.00 | 0.00 | 0.00 | 89 | 1016.7 |
| 20260831091732 | 77 | 226 | 5.0 | 6.0 | 0.00 | 0.00 | 0.00 | 89 | 1016.8 |
| 20260831091228 | 77 | 234 | 6.0 | 7.0 | 0.00 | 0.00 | 0.00 | 89 | 1016.6 |
| 20260831090723 | 77 | 261 | 8.0 | 9.0 | 0.00 | 0.00 | 0.00 | 89 | 1016.6 |
| 20260831090220 | 77 | 210 | 10.0 | 11.0 | 0.00 | 0.00 | 0.00 | 89 | 1016.6 |
| 20260831085715 | 77 | 166 | 6.0 | 8.0 | 0.00 | 0.00 | 0.00 | 89 | 1016.6 |
| 20260831085210 | 77 | 214 | 7.0 | 9.0 | 0.00 | 0.00 | 0.00 | 88 | 1016.7 |
| 20260831084705 | 78 | 216 | 6.0 | 8.0 | 0.00 | 0.00 | 0.00 | 88 | 1016.5 |
| 20260831084201 | 78 | 192 | 7.0 | 8.0 | 0.00 | 0.00 | 0.00 | 87 | 1016.8 |
| 20260831083657 | 78 | 197 | 7.0 | 8.0 | 0.00 | 0.00 | 0.00 | 87 | 1016.9 |
| 20260831083153 | 78 | 219 | 9.0 | 10.0 | 0.00 | 0.00 | 0.00 | 87 | 1016.8 |
| 20260831082650 | 78 | 224 | 7.0 | 8.0 | 0.00 | 0.00 | 0.00 | 86 | 1016.7 |
| 20260831082146 | 78 | 206 | 5.0 | 6.0 | 0.00 | 0.00 | 0.00 | 85 | 1016.8 |
| 20260831081641 | 78 | 210 | 7.0 | 8.0 | 0.00 | 0.00 | 0.00 | 84 | 1016.9 |